[[{"header":{"parameterUnit":"m.s-1","parameterCategory":1,"la1":30.2991,"la2":30.254,"lo1":-89.0895,"lo2":-89.0444,"dy":0.0017,"dx":0.0017,"nx":28,"ny":28,"refTime":"2025-03-04T09:00:00:Z","depth":0,"parameterNumber":2,"parameterNumberName":"U-component_of_WINDS"},"data":[0,0,0,0,0,0,0,0,0,0,0,0,0,0,0,0,0,0,0,0,0,0,0,0,0,0,0,0,0,0,0,0,0,0,0,0,0,0,0,0,0,0,0,0,0,0,0,0,0,0,0,0,0,0,0,0,0,0,1.1943,1.1939,0,1.1595,1.1592,1.1588,1.1405,1.1404,1.1404,1.1404,1.1062,1.1054,1.1045,0,0,0,0,0,0,0,0,0,0,0,0,0,1.2466,1.2458,1.1944,1.1939,1.1935,1.1596,1.1591,1.1587,1.1405,1.1404,1.1404,1.1404,1.1065,1.1055,1.1044,0,0,0,0,0,0,0,0,0,0,0,0,0,1.2192,1.2455,1.1944,1.1803,1.1787,1.1597,1.1591,1.1585,1.1405,1.1404,1.1404,1.1403,1.1069,1.1056,1.1043,1.0972,0,0,1.1003,1.0997,0,0,0,0,0,0,0,0,1.2207,1.2173,1.1828,1.1812,1.1794,1.1542,1.165,1.138,1.1405,1.155,1.1404,1.1403,1.1224,1.1198,1.1134,1.0956,1.0941,1.1002,1.0994,1.0988,1.0984,0,0,0,0,0,0,0,1.2227,1.2187,1.1806,1.1823,1.1802,1.1762,1.1722,1.1598,1.1395,1.1538,1.1523,1.1484,1.1214,1.1147,1.1125,1.0936,1.1002,1.099,1.0982,1.0977,1.0685,1.0685,0,0,0,0,0,0,1.2266,1.2204,1.1817,1.1796,1.2003,1.1753,1.1709,1.1624,1.1395,1.136,1.1485,1.1477,1.117,1.114,1.1112,1.1013,1.0988,1.0976,1.0968,1.0685,1.0685,1.0685,0,0,0,0,0,0,1.2278,1.2233,1.1831,1.1995,1.1941,1.1744,1.1651,1.1618,1.155,1.1355,1.132,1.1452,1.1168,1.1131,1.1007,1.0999,1.097,1.0958,1.0685,1.0685,1.0685,1.0816,0,0,0,0,0,0,1.2294,1.2239,1.2206,1.1996,1.1933,1.1728,1.165,1.1611,1.1526,1.1512,1.1315,1.1282,1.1165,1.1028,1.0995,1.098,1.0948,1.0685,1.0685,1.0685,1.0812,1.0821,1.0829,0,0,0,0,0,1.2313,1.2259,1.2205,1.2159,1.1887,1.1728,1.1692,1.1554,1.1526,1.1493,1.1369,1.1289,1.1006,1.1017,1.0978,1.096,1.0685,1.0685,1.0685,1.0808,1.0819,1.0829,0,0,0,0,0,0,1.2478,1.2229,1.2166,1.2041,1.1907,1.1697,1.1651,1.157,1.1444,1.1437,1.1276,1.1233,1.1125,1.1031,1.1047,1.088,1.0838,1.083,1.0945,1.0954,1.0962,1.0986,1.0937,0,0,0,0,0,1.2499,1.2385,1.2177,1.2088,1.2023,1.185,1.1775,1.168,1.1536,1.1479,1.1345,1.1213,1.1094,1.1019,1.0899,1.0799,1.0755,1.0768,1.0777,1.0784,1.0779,1.072,1.0724,1.0686,1.0686,1.0686,0,0,1.2543,1.2393,1.2332,1.2117,1.2001,1.1892,1.1803,1.1691,1.1609,1.1464,1.1336,1.1236,1.1078,1.0966,1.091,1.0883,1.078,1.0785,1.0792,1.0782,1.0721,1.0725,1.0728,1.0687,1.0687,1.0687,0,0,1.2565,1.244,1.2351,1.2237,1.2061,1.1947,1.1927,1.1729,1.1654,1.1524,1.1413,1.1318,1.1116,1.1007,1.0927,1.0913,1.0835,1.0879,1.0922,1.0867,1.087,1.0872,1.0866,1.0867,1.0875,1.0875,1.0876,0,1.2643,1.2467,1.2318,1.2211,1.2121,1.1981,1.1893,1.1791,1.1589,1.1532,1.1505,1.1249,1.1133,1.0994,1.0991,1.093,1.0904,1.0899,1.0881,1.0881,1.0881,1.0874,1.0872,1.0882,1.0881,1.088,1.088,0,1.2572,1.2453,1.2404,1.2205,1.2111,1.2015,1.1856,1.1779,1.1695,1.1585,1.1457,1.1313,1.1162,1.1123,1.1041,1.0973,1.0962,1.0911,1.0864,1.0893,1.0884,1.088,1.0891,1.0889,1.0887,1.0885,0,0,1.2685,1.2405,1.239,1.2298,1.2096,1.2004,1.1905,1.1752,1.169,1.1557,1.147,1.1305,1.1255,1.1164,1.1069,1.1021,1.1019,1.0975,1.0969,1.0987,1.0937,1.0976,1.0975,1.0968,1.0967,1.0966,1.095,0,1.2677,1.2483,1.2348,1.221,1.21,1.1968,1.1881,1.1751,1.1648,1.1544,1.1432,1.1316,1.126,1.1204,1.1151,1.1031,1.1007,1.1031,1.0889,1.0886,1.0929,1.097,1.1009,1.1,1.0946,1.0945,1.0945,0,1.2641,1.2506,1.2356,1.2166,1.2115,1.2039,1.1889,1.179,1.1643,1.1571,1.147,1.1372,1.1267,1.1233,1.1087,1.1106,1.1041,1.0975,1.0971,1.095,1.0915,1.0949,1.0994,1.0993,1.0938,1.0938,1.0939,0,1.2737,1.252,1.24,1.2327,1.2103,1.2053,1.1959,1.1809,1.1727,1.1599,1.1545,1.1409,1.1334,1.1234,1.1104,1.1091,1.0972,1.0927,1.0912,1.0915,1.089,1.0893,1.0924,1.0853,1.0853,1.0853,1.0853,0,1.2741,1.2654,1.244,1.2367,1.2268,1.2116,1.2024,1.1919,1.1788,1.1697,1.1578,1.1496,1.133,1.123,1.113,1.1024,1.0992,1.0934,1.0908,1.0942,1.095,1.0896,1.0892,1.0853,1.0853,1.0853,1.0853,0,1.2829,1.2682,1.2544,1.2343,1.2291,1.2227,1.2057,1.1984,1.1876,1.1762,1.1727,1.1557,1.1433,1.1294,1.1126,1.1058,1.0959,1.0923,1.1007,1.0992,1.0983,1.0986,1.0979,1.0971,1.0909,1.091,1.0911,0,1.284,1.2769,1.256,1.2487,1.2394,1.228,1.2194,1.2045,1.1962,1.1789,1.1739,1.1604,1.1488,1.1297,1.1162,1.1034,1.0992,1.0999,1.0972,1.1009,1.099,1.0995,1.0987,1.1006,1.1007,1.1009,1.1009,0,1.2874,1.2805,1.2683,1.2537,1.2437,1.2316,1.219,1.214,1.1967,1.1881,1.1749,1.166,1.1486,1.1355,1.121,1.1118,1.1036,1.102,1.1009,1.1042,1.1093,1.1064,1.1026,1.1019,1.1018,1.1018,1.1017,1.1017,1.2922,1.2853,1.2694,1.2564,1.2453,1.234,1.226,1.2141,1.2027,1.187,1.1792,1.1662,1.152,1.1315,1.1227,1.1126,1.11,1.1085,1.1081,1.1079,1.1088,1.1112,1.11,1.11,1.1099,1.1099,1.1099,0,1.2949,1.284,1.2721,1.2548,1.2446,1.2375,1.2233,1.2155,1.204,1.1912,1.1799,1.1651,1.1524,1.138,1.1246,1.1193,1.1153,1.1163,1.1164,1.1145,1.112,1.1141,1.1198,1.1198,1.1198,1.1198,1.1198,1.1198,1.295,1.2829,1.2742,1.2568,1.2462,1.2329,1.2254,1.2151,1.2047,1.1884,1.1776,1.1682,1.1549,1.1404,1.1287,1.1248,1.1204,1.1225,1.1176,1.1155,1.1146,1.1139,1.1158,1.1217,1.1217,1.1209,1.1209,1.1209]},{"header":{"parameterUnit":"m.s-1","parameterCategory":1,"la1":30.2991,"la2":30.254,"lo1":-89.0895,"lo2":-89.0444,"dy":0.0017,"dx":0.0017,"nx":28,"ny":28,"refTime":"2025-03-04T09:00:00:Z","depth":0,"parameterNumber":3,"parameterNumberName":"V-component_of_WINDS"},"data":[0,0,0,0,0,0,0,0,0,0,0,0,0,0,0,0,0,0,0,0,0,0,0,0,0,0,0,0,0,0,0,0,0,0,0,0,0,0,0,0,0,0,0,0,0,0,0,0,0,0,0,0,0,0,0,0,0,0,11.5015,11.5021,0,11.5613,11.562,11.5627,11.5827,11.5825,11.5822,11.582,11.6413,11.6431,11.6448,0,0,0,0,0,0,0,0,0,0,0,0,0,11.4023,11.404,11.5014,11.5022,11.5029,11.5612,11.562,11.5628,11.5828,11.5825,11.5822,11.5819,11.6407,11.6428,11.645,0,0,0,0,0,0,0,0,0,0,0,0,0,11.452,11.4046,11.5013,11.52,11.5222,11.561,11.562,11.563,11.5828,11.5825,11.5821,11.5818,11.64,11.6426,11.6453,11.6693,0,0,11.6536,11.6547,0,0,0,0,0,0,0,0,11.4492,11.4556,11.5165,11.5187,11.5214,11.5642,11.5488,11.5986,11.5829,11.5598,11.582,11.5816,11.6158,11.6205,11.6325,11.6721,11.6746,11.6538,11.6555,11.6566,11.6574,0,0,0,0,0,0,0,11.4457,11.4531,11.5251,11.5173,11.5203,11.5246,11.5313,11.5583,11.589,11.5617,11.5634,11.5703,11.6171,11.6298,11.634,11.6755,11.6537,11.6561,11.6578,11.6589,11.7375,11.7379,0,0,0,0,0,0,11.4394,11.4501,11.5232,11.5269,11.4837,11.5267,11.5342,11.5508,11.5888,11.5943,11.5705,11.571,11.6253,11.6308,11.6361,11.6668,11.6566,11.6591,11.6607,11.737,11.7376,11.7381,0,0,0,0,0,0,11.4372,11.4457,11.5207,11.489,11.4989,11.5288,11.5473,11.5522,11.565,11.5955,11.6008,11.5781,11.6253,11.6323,11.661,11.6691,11.6604,11.6628,11.7365,11.7372,11.7379,11.7281,0,0,0,0,0,0,11.4343,11.4448,11.4548,11.4891,11.5005,11.5452,11.5478,11.5536,11.5698,11.571,11.604,11.609,11.6255,11.6569,11.6637,11.6727,11.6649,11.7359,11.7368,11.7376,11.7279,11.7284,11.7289,0,0,0,0,0,11.4307,11.4492,11.4552,11.4639,11.5137,11.5457,11.5521,11.5713,11.5704,11.5803,11.5998,11.608,11.667,11.6596,11.6675,11.6774,11.7355,11.7365,11.7376,11.7276,11.7283,11.7289,0,0,0,0,0,0,11.4144,11.4541,11.4611,11.4915,11.5151,11.549,11.5622,11.5714,11.5953,11.5953,11.6174,11.6247,11.6516,11.6673,11.6584,11.7025,11.7016,11.7043,11.6914,11.6923,11.6927,11.6884,11.6672,0,0,0,0,0,11.4145,11.4379,11.4709,11.4945,11.5061,11.532,11.5466,11.5594,11.5845,11.5944,11.6161,11.6395,11.6634,11.6786,11.7023,11.7301,11.7374,11.7407,11.7412,11.7415,11.7435,11.7593,11.7611,11.7415,11.7415,11.7415,0,0,11.4147,11.4392,11.4525,11.4919,11.5117,11.5347,11.5403,11.5644,11.5816,11.5979,11.6266,11.6431,11.6707,11.699,11.7126,11.7129,11.7505,11.7428,11.7428,11.7448,11.7605,11.7624,11.764,11.7423,11.7421,11.742,0,0,11.4269,11.4479,11.4699,11.4897,11.5199,11.537,11.5421,11.5748,11.5866,11.6158,11.6285,11.6487,11.6894,11.7086,11.7236,11.7427,11.7511,11.7497,11.7524,11.7675,11.769,11.7705,11.7773,11.7795,11.7516,11.7516,11.7516,0,11.4232,11.4592,11.4798,11.5036,11.5203,11.5366,11.5587,11.5766,11.6126,11.6234,11.6234,11.6749,11.6946,11.7276,11.7323,11.7439,11.7502,11.7462,11.7673,11.769,11.7706,11.7774,11.7799,11.7513,11.7513,11.7513,11.7514,0,11.453,11.4777,11.4917,11.5269,11.5451,11.5677,11.5912,11.607,11.618,11.6348,11.664,11.6882,11.7171,11.7257,11.7364,11.7602,11.7595,11.763,11.7627,11.7718,11.7785,11.7812,11.7508,11.7509,11.751,11.7511,0,0,11.4571,11.5033,11.5081,11.5242,11.5585,11.5777,11.6006,11.6296,11.6426,11.6666,11.6863,11.7203,11.7239,11.7409,11.7538,11.767,11.7805,11.769,11.7699,11.7703,11.808,11.8053,11.808,11.7861,11.7867,11.7871,11.8057,0,11.4738,11.5168,11.5359,11.5699,11.5927,11.6083,11.6284,11.6511,11.6674,11.6885,11.7061,11.73,11.7328,11.7432,11.7569,11.7759,11.7884,11.7748,11.8042,11.805,11.7972,11.8115,11.8088,11.8253,11.8085,11.8089,11.8093,0,11.4993,11.5242,11.5606,11.5922,11.6025,11.6203,11.6482,11.6684,11.6942,11.705,11.724,11.7364,11.7605,11.7583,11.7917,11.782,11.795,11.8061,11.8072,11.8108,11.8079,11.8156,11.831,11.8335,11.8136,11.8132,11.8129,0,11.4986,11.5411,11.5685,11.5817,11.6192,11.6313,11.6473,11.673,11.689,11.7129,11.7235,11.7496,11.764,11.7836,11.8025,11.7991,11.834,11.8333,11.8434,11.8429,11.8503,11.8496,11.868,11.8582,11.8582,11.8581,11.858,0,11.5155,11.5372,11.5688,11.5856,11.6102,11.6314,11.6549,11.6719,11.6945,11.7144,11.7291,11.7473,11.771,11.792,11.8068,11.8321,11.8384,11.8475,11.8512,11.8464,11.8452,11.8554,11.8548,11.8588,11.8586,11.8585,11.8584,0,11.5191,11.5412,11.5721,11.6051,11.6138,11.6305,11.6584,11.6749,11.6917,11.7167,11.7237,11.75,11.7755,11.7962,11.8293,11.8392,11.8657,11.8698,11.8573,11.8593,11.8682,11.8671,11.894,11.8986,11.8853,11.8854,11.8855,0,11.5286,11.5458,11.5808,11.5955,11.6116,11.635,11.6516,11.6729,11.6894,11.7202,11.7328,11.7595,11.7821,11.8219,11.8435,11.8688,11.8738,11.8814,11.8776,11.8723,11.8741,11.8729,11.8747,11.8818,11.8818,11.8819,11.8819,0,11.5431,11.5532,11.577,11.6045,11.624,11.6465,11.6693,11.6803,11.7056,11.7233,11.75,11.7674,11.8015,11.8277,11.8553,11.871,11.8806,11.8829,11.8866,11.882,11.8741,11.8787,11.8585,11.8823,11.8822,11.8822,11.8822,11.8822,11.5502,11.5662,11.5933,11.6192,11.6387,11.6596,11.6769,11.696,11.7188,11.7488,11.7596,11.7868,11.8119,11.8501,11.8659,11.8871,11.888,11.8933,11.8947,11.8958,11.8952,11.8705,11.8921,11.8921,11.8921,11.8922,11.8922,0,11.5655,11.5838,11.6074,11.6392,11.6593,11.6671,11.6926,11.7088,11.7329,11.7557,11.7777,11.8081,11.8335,11.857,11.8834,11.8958,11.9008,11.902,11.9014,11.9049,11.8928,11.8871,11.8975,11.8975,11.8975,11.8975,11.8975,11.8975,11.576,11.6035,11.6166,11.6537,11.6716,11.6991,11.713,11.7321,11.7505,11.7841,11.8055,11.8209,11.8439,11.8721,11.8955,11.9017,11.9107,11.9108,11.9181,11.9065,11.9057,11.9049,11.8997,11.9126,11.9126,11.9285,11.9287,11.9288]}]]